Orbital Elements at Epoch 2459200.5 (2020-Dec-17.0) TDB
Reference: JPL 18 (heliocentric ecliptic J2000)
Element | Value | Uncertainty (1-sigma) | Units |
e | .1798542879635293 | 4.2103e-08 | |
a | 2.719519534177403 | 1.6864e-08 | au |
q | 2.230402284755018 | 1.1574e-07 | au |
i | 3.103668472063263 | 5.2371e-06 | deg |
node | 356.054673827404 | 8.0434e-05 | deg |
peri | 55.80074197099913 | 8.1821e-05 | deg |
M | 283.5193558182016 | 1.7711e-05 | deg |
tp | 2459548.505203227146 (2021-Nov-30.00520323) | 8.2857e-05 | TDB |
period | 1638.086008585009 4.48 | 1.5237e-05 4.172e-08 | d yr |
n | .2197686801018285 | 2.0442e-09 | deg/d |
Q | 3.208636783599789 | 1.9897e-08 | au |
|
| | Orbit Determination Parameters
Additional Information
|